Time,TemperatureF,DewpointF,PressureIn,WindDirection,WindDirectionDegrees,WindSpeedMPH,WindSpeedGustMPH,Humidity,HourlyPrecipIn,Conditions,Clouds,dailyrainin,SoftwareType,DateUTC
2013-03-12 00:02:00,61.0,53.0,29.91,SSE,150,4.0,8.0,76,0.00,,,0.00,,2013-03-12 04:02:00,
2013-03-12 00:13:00,61.0,53.0,29.91,SSE,150,4.0,8.0,76,0.00,,,0.00,,2013-03-12 04:13:00,
2013-03-12 00:22:00,61.0,53.0,29.91,SSE,155,3.0,9.0,76,0.00,,,0.00,,2013-03-12 04:22:00,
2013-03-12 00:32:00,61.0,54.0,29.90,SE,142,3.0,9.0,77,0.00,,,0.00,,2013-03-12 04:32:00,
2013-03-12 00:43:00,61.0,54.0,29.90,SE,142,3.0,9.0,77,0.00,,,0.00,,2013-03-12 04:43:00,
2013-03-12 00:52:00,61.0,54.0,29.90,SE,143,4.0,9.0,77,0.00,,,0.00,,2013-03-12 04:52:00,
2013-03-12 01:02:00,60.0,53.0,29.89,SE,143,3.0,12.0,78,0.00,,,0.00,,2013-03-12 05:02:00,
2013-03-12 01:12:00,60.0,53.0,29.89,SE,143,3.0,12.0,78,0.00,,,0.00,,2013-03-12 05:12:00,
2013-03-12 01:22:00,60.0,53.0,29.88,SE,132,3.0,10.0,78,0.00,,,0.00,,2013-03-12 05:22:00,
2013-03-12 01:32:00,60.0,53.0,29.88,SE,140,3.0,7.0,79,0.00,,,0.00,,2013-03-12 05:32:00,
2013-03-12 01:42:00,60.0,53.0,29.88,SE,140,3.0,7.0,79,0.00,,,0.00,,2013-03-12 05:42:00,
2013-03-12 01:52:00,60.0,53.0,29.88,SE,144,2.0,9.0,79,0.00,,,0.00,,2013-03-12 05:52:00,
2013-03-12 02:02:00,60.0,54.0,29.87,SSE,157,4.0,8.0,81,0.00,,,0.00,,2013-03-12 06:02:00,
2013-03-12 02:12:00,60.0,54.0,29.87,SSE,157,4.0,8.0,81,0.00,,,0.00,,2013-03-12 06:12:00,
2013-03-12 02:22:00,60.0,54.0,29.87,SSE,157,4.0,8.0,81,0.00,,,0.00,,2013-03-12 06:22:00,
2013-03-12 02:32:00,59.0,54.0,29.86,SE,146,4.0,14.0,85,0.00,,,0.00,,2013-03-12 06:32:00,
2013-03-12 02:42:00,59.0,54.0,29.86,SE,146,4.0,14.0,85,0.00,,,0.00,,2013-03-12 06:42:00,
2013-03-12 02:52:00,59.0,55.0,29.85,SE,144,4.0,8.0,87,0.00,,,0.00,,2013-03-12 06:52:00,
2013-03-12 03:02:00,58.0,55.0,29.85,SE,136,4.0,9.0,89,0.00,,,0.00,,2013-03-12 07:02:00,
2013-03-12 03:12:00,58.0,55.0,29.85,SE,136,4.0,9.0,89,0.00,,,0.00,,2013-03-12 07:12:00,
2013-03-12 03:22:00,58.0,55.0,29.84,South,176,1.0,6.0,90,0.01,,,0.01,,2013-03-12 07:22:00,
2013-03-12 03:32:00,57.0,55.0,29.83,SE,142,3.0,7.0,92,0.02,,,0.02,,2013-03-12 07:32:00,
2013-03-12 03:42:00,57.0,55.0,29.83,SE,142,3.0,7.0,92,0.02,,,0.02,,2013-03-12 07:42:00,
2013-03-12 03:52:00,57.0,55.0,29.82,North,0,0.0,10.0,93,0.03,,,0.03,,2013-03-12 07:52:00,
2013-03-12 04:02:00,57.0,55.0,29.81,SSE,157,3.0,10.0,94,0.02,,,0.03,,2013-03-12 08:02:00,
2013-03-12 04:13:00,57.0,55.0,29.81,SSE,157,3.0,10.0,94,0.02,,,0.03,,2013-03-12 08:13:00,
2013-03-12 04:22:00,57.0,55.0,29.80,SE,135,3.0,9.0,94,0.03,,,0.04,,2013-03-12 08:22:00,
2013-03-12 04:33:00,57.0,56.0,29.81,SSE,159,4.0,8.0,95,0.02,,,0.04,,2013-03-12 08:33:00,
2013-03-12 04:42:00,57.0,56.0,29.81,SSE,159,4.0,8.0,95,0.02,,,0.04,,2013-03-12 08:42:00,
2013-03-12 04:52:00,57.0,56.0,29.80,SE,128,3.0,9.0,95,0.03,,,0.05,,2013-03-12 08:52:00,
2013-03-12 05:03:00,57.0,56.0,29.80,SE,145,4.0,11.0,96,0.03,,,0.06,,2013-03-12 09:03:00,
2013-03-12 05:12:00,57.0,56.0,29.80,SE,145,4.0,11.0,96,0.03,,,0.06,,2013-03-12 09:12:00,
2013-03-12 05:22:00,58.0,57.0,29.79,SSE,157,4.0,11.0,95,0.03,,,0.07,,2013-03-12 09:22:00,
2013-03-12 05:33:00,58.0,57.0,29.79,SSE,165,5.0,9.0,96,0.05,,,0.10,,2013-03-12 09:33:00,
2013-03-12 05:42:00,58.0,57.0,29.79,SSE,165,5.0,9.0,96,0.05,,,0.10,,2013-03-12 09:42:00,
2013-03-12 05:52:00,59.0,58.0,29.78,SSE,147,4.0,12.0,96,0.06,,,0.11,,2013-03-12 09:52:00,
2013-03-12 06:02:00,59.0,58.0,29.78,SSE,147,3.0,10.0,96,0.05,,,0.11,,2013-03-12 10:02:00,
2013-03-12 06:12:00,59.0,58.0,29.78,SSE,147,3.0,10.0,96,0.05,,,0.11,,2013-03-12 10:12:00,
2013-03-12 06:22:00,59.0,58.0,29.77,SSE,162,2.0,11.0,96,0.05,,,0.12,,2013-03-12 10:22:00,
2013-03-12 06:32:00,59.0,58.0,29.77,SSE,156,2.0,10.0,96,0.02,,,0.12,,2013-03-12 10:32:00,
2013-03-12 06:42:00,59.0,58.0,29.77,SSE,156,2.0,10.0,96,0.02,,,0.12,,2013-03-12 10:42:00,
2013-03-12 06:52:00,60.0,59.0,29.76,SSE,148,4.0,9.0,96,0.04,,,0.15,,2013-03-12 10:52:00,
2013-03-12 07:02:00,60.0,59.0,29.75,SE,134,6.0,14.0,95,0.08,,,0.19,,2013-03-12 11:02:00,
2013-03-12 07:12:00,60.0,59.0,29.75,SE,134,6.0,14.0,95,0.08,,,0.19,,2013-03-12 11:12:00,
2013-03-12 07:22:00,60.0,59.0,29.75,SE,134,6.0,14.0,95,0.08,,,0.19,,2013-03-12 11:22:00,
2013-03-12 07:32:00,61.0,60.0,29.75,SE,142,3.0,15.0,95,0.07,,,0.20,,2013-03-12 11:32:00,
2013-03-12 07:42:00,61.0,60.0,29.75,SE,142,3.0,15.0,95,0.07,,,0.20,,2013-03-12 11:42:00,
2013-03-12 07:52:00,61.0,60.0,29.75,SE,142,3.0,15.0,95,0.07,,,0.20,,2013-03-12 11:52:00,
2013-03-12 08:03:00,60.0,59.0,29.75,SE,146,5.0,14.0,95,0.04,,,0.21,,2013-03-12 12:03:00,
2013-03-12 08:12:00,60.0,59.0,29.75,SE,146,5.0,14.0,95,0.04,,,0.21,,2013-03-12 12:12:00,
2013-03-12 08:22:00,61.0,59.0,29.74,SSE,156,5.0,16.0,94,0.03,,,0.22,,2013-03-12 12:22:00,
2013-03-12 08:32:00,61.0,59.0,29.75,SSE,149,5.0,13.0,94,0.05,,,0.24,,2013-03-12 12:32:00,
2013-03-12 08:42:00,61.0,59.0,29.75,SSE,149,5.0,13.0,94,0.05,,,0.24,,2013-03-12 12:42:00,
2013-03-12 08:52:00,61.0,60.0,29.74,SSE,154,6.0,11.0,95,0.07,,,0.28,,2013-03-12 12:52:00,
2013-03-12 09:02:00,61.0,60.0,29.75,South,176,6.0,16.0,95,0.12,,,0.34,,2013-03-12 13:02:00,
2013-03-12 09:12:00,61.0,60.0,29.75,South,176,6.0,16.0,95,0.12,,,0.34,,2013-03-12 13:12:00,
2013-03-12 09:22:00,61.0,60.0,29.75,South,178,1.0,8.0,95,0.18,,,0.40,,2013-03-12 13:22:00,
2013-03-12 09:32:00,61.0,60.0,29.76,SSW,210,2.0,6.0,95,0.25,,,0.49,,2013-03-12 13:32:00,
2013-03-12 09:42:00,61.0,60.0,29.76,SSW,210,2.0,6.0,95,0.25,,,0.49,,2013-03-12 13:42:00,
2013-03-12 09:52:00,61.0,60.0,29.77,South,173,3.0,9.0,96,0.41,,,0.69,,2013-03-12 13:52:00,
2013-03-12 10:02:00,61.0,60.0,29.77,NE,40,1.0,10.0,95,0.35,,,0.69,,2013-03-12 14:02:00,
2013-03-12 10:12:00,61.0,60.0,29.77,NE,40,1.0,10.0,95,0.35,,,0.69,,2013-03-12 14:12:00,
2013-03-12 10:22:00,61.0,60.0,29.77,NE,40,1.0,10.0,95,0.35,,,0.69,,2013-03-12 14:22:00,
2013-03-12 10:33:00,62.0,61.0,29.77,SSE,168,3.0,8.0,95,0.11,,,0.69,,2013-03-12 14:33:00,
2013-03-12 10:42:00,62.0,61.0,29.77,SSE,168,3.0,8.0,95,0.11,,,0.69,,2013-03-12 14:42:00,
2013-03-12 10:53:00,62.0,60.0,29.77,SSE,164,3.0,7.0,94,0.02,,,0.69,,2013-03-12 14:53:00,
2013-03-12 11:02:00,62.0,60.0,29.77,SE,130,3.0,6.0,94,0.00,,,0.69,,2013-03-12 15:02:00,
2013-03-12 11:12:00,62.0,60.0,29.77,SE,130,3.0,6.0,94,0.00,,,0.69,,2013-03-12 15:12:00,
2013-03-12 11:22:00,62.0,60.0,29.77,SSE,151,1.0,10.0,94,0.00,,,0.69,,2013-03-12 15:22:00,
2013-03-12 11:32:00,63.0,61.0,29.77,SE,143,3.0,7.0,92,0.00,,,0.69,,2013-03-12 15:32:00,
2013-03-12 11:42:00,63.0,61.0,29.77,SE,143,3.0,7.0,92,0.00,,,0.69,,2013-03-12 15:42:00,
2013-03-12 11:52:00,63.0,61.0,29.77,SSE,154,1.0,6.0,92,0.00,,,0.69,,2013-03-12 15:52:00,
2013-03-12 12:03:00,63.0,61.0,29.77,SSE,154,1.0,6.0,92,0.00,,,0.69,,2013-03-12 16:03:00,
2013-03-12 12:12:00,63.0,61.0,29.77,SSE,154,1.0,6.0,92,0.00,,,0.69,,2013-03-12 16:12:00,
2013-03-12 12:22:00,63.0,60.0,29.77,SSE,151,1.0,7.0,91,0.00,,,0.69,,2013-03-12 16:22:00,
2013-03-12 12:33:00,63.0,60.0,29.77,South,173,3.0,8.0,91,0.00,,,0.69,,2013-03-12 16:33:00,
2013-03-12 12:43:00,63.0,60.0,29.77,South,173,3.0,8.0,91,0.00,,,0.69,,2013-03-12 16:43:00,
2013-03-12 12:52:00,63.0,60.0,29.78,South,169,3.0,8.0,91,0.00,,,0.69,,2013-03-12 16:52:00,
2013-03-12 13:03:00,63.0,60.0,29.77,SSE,163,1.0,7.0,91,0.00,,,0.69,,2013-03-12 17:03:00,
2013-03-12 13:13:00,63.0,60.0,29.77,SSE,163,1.0,7.0,91,0.00,,,0.69,,2013-03-12 17:13:00,
2013-03-12 13:22:00,65.0,61.0,29.77,South,169,4.0,9.0,88,0.00,,,0.69,,2013-03-12 17:22:00,
2013-03-12 13:34:00,68.0,63.0,29.76,SSE,152,2.0,7.0,83,0.00,,,0.69,,2013-03-12 17:34:00,
2013-03-12 13:43:00,68.0,63.0,29.76,SSE,152,2.0,7.0,83,0.00,,,0.69,,2013-03-12 17:43:00,
2013-03-12 13:53:00,68.0,63.0,29.76,SSE,152,2.0,7.0,83,0.00,,,0.69,,2013-03-12 17:53:00,
2013-03-12 14:03:00,62.0,57.0,29.76,North,0,0.0,5.0,84,0.00,,,0.69,,2013-03-12 18:03:00,
2013-03-12 14:13:00,63.0,57.0,29.75,NNE,21,3.0,7.0,81,0.00,,,0.69,,2013-03-12 18:13:00,
2013-03-12 14:23:00,63.0,57.0,29.75,NNE,21,3.0,7.0,81,0.00,,,0.69,,2013-03-12 18:23:00,
2013-03-12 14:33:00,65.0,58.0,29.75,WNW,293,2.0,8.0,78,0.00,,,0.69,,2013-03-12 18:33:00,
2013-03-12 14:42:00,65.0,58.0,29.75,WNW,293,2.0,8.0,78,0.00,,,0.69,,2013-03-12 18:42:00,
2013-03-12 14:53:00,67.0,58.0,29.75,NNW,341,2.0,7.0,72,0.00,,,0.69,,2013-03-12 18:53:00,
2013-03-12 15:03:00,66.0,56.0,29.74,NNW,327,3.0,7.0,71,0.00,,,0.69,,2013-03-12 19:03:00,
2013-03-12 15:13:00,66.0,56.0,29.74,NNW,327,3.0,7.0,71,0.00,,,0.69,,2013-03-12 19:13:00,
2013-03-12 15:23:00,66.0,57.0,29.74,SW,225,3.0,7.0,72,0.00,,,0.69,,2013-03-12 19:23:00,
2013-03-12 15:33:00,69.0,58.0,29.73,NNE,15,1.0,6.0,69,0.00,,,0.69,,2013-03-12 19:33:00,
2013-03-12 15:43:00,69.0,58.0,29.73,NNE,15,1.0,6.0,69,0.00,,,0.69,,2013-03-12 19:43:00,
2013-03-12 15:53:00,69.0,57.0,29.73,NW,321,2.0,6.0,65,0.01,,,0.70,,2013-03-12 19:53:00,
2013-03-12 16:02:00,68.0,57.0,29.72,WNW,292,1.0,5.0,68,0.01,,,0.70,,2013-03-12 20:02:00,
2013-03-12 16:12:00,68.0,57.0,29.72,WNW,292,1.0,5.0,68,0.01,,,0.70,,2013-03-12 20:12:00,
2013-03-12 16:23:00,69.0,56.0,29.72,NW,316,2.0,7.0,63,0.01,,,0.70,,2013-03-12 20:23:00,
2013-03-12 16:32:00,69.0,57.0,29.72,North,6,1.0,8.0,65,0.01,,,0.70,,2013-03-12 20:32:00,
2013-03-12 16:42:00,69.0,57.0,29.72,North,6,1.0,8.0,65,0.01,,,0.70,,2013-03-12 20:42:00,
2013-03-12 16:52:00,68.0,55.0,29.73,NW,304,3.0,9.0,63,0.00,,,0.70,,2013-03-12 20:52:00,
2013-03-12 17:03:00,67.0,55.0,29.73,SE,145,1.0,7.0,65,0.00,,,0.70,,2013-03-12 21:03:00,
2013-03-12 17:13:00,67.0,55.0,29.73,SE,145,1.0,7.0,65,0.00,,,0.70,,2013-03-12 21:13:00,
2013-03-12 17:22:00,68.0,55.0,29.74,North,0,0.0,7.0,63,0.00,,,0.70,,2013-03-12 21:22:00,
2013-03-12 17:33:00,68.0,54.0,29.74,NNE,22,1.0,8.0,61,0.00,,,0.70,,2013-03-12 21:33:00,
2013-03-12 17:43:00,68.0,54.0,29.74,NNE,22,1.0,8.0,61,0.00,,,0.70,,2013-03-12 21:43:00,
2013-03-12 17:52:00,67.0,53.0,29.75,WNW,297,3.0,8.0,60,0.00,,,0.70,,2013-03-12 21:52:00,
2013-03-12 18:03:00,67.0,53.0,29.75,West,268,1.0,9.0,60,0.00,,,0.70,,2013-03-12 22:03:00,
2013-03-12 18:12:00,67.0,53.0,29.75,West,268,1.0,9.0,60,0.00,,,0.70,,2013-03-12 22:12:00,
2013-03-12 18:22:00,67.0,53.0,29.75,West,268,1.0,9.0,60,0.00,,,0.70,,2013-03-12 22:22:00,
2013-03-12 18:33:00,66.0,52.0,29.75,North,0,0.0,6.0,60,0.00,,,0.70,,2013-03-12 22:33:00,
2013-03-12 18:43:00,66.0,52.0,29.75,North,0,0.0,6.0,60,0.00,,,0.70,,2013-03-12 22:43:00,
2013-03-12 18:53:00,65.0,51.0,29.76,North,0,0.0,10.0,61,0.00,,,0.70,,2013-03-12 22:53:00,
2013-03-12 19:03:00,64.0,50.0,29.77,North,0,0.0,5.0,61,0.00,,,0.70,,2013-03-12 23:03:00,
2013-03-12 19:12:00,64.0,50.0,29.77,North,0,0.0,5.0,61,0.00,,,0.70,,2013-03-12 23:12:00,
2013-03-12 19:22:00,64.0,50.0,29.78,NW,319,1.0,6.0,60,0.00,,,0.70,,2013-03-12 23:22:00,
2013-03-12 19:34:00,63.0,50.0,29.79,North,0,0.0,3.0,62,0.00,,,0.70,,2013-03-12 23:34:00,
2013-03-12 19:43:00,63.0,50.0,29.79,North,0,0.0,3.0,62,0.00,,,0.70,,2013-03-12 23:43:00,
2013-03-12 19:52:00,61.0,47.0,29.79,NW,323,3.0,10.0,61,0.00,,,0.70,,2013-03-12 23:52:00,
2013-03-12 20:03:00,60.0,46.0,29.80,North,0,0.0,6.0,59,0.00,,,0.70,,2013-03-13 00:03:00,
2013-03-12 20:12:00,60.0,46.0,29.80,North,0,0.0,6.0,59,0.00,,,0.70,,2013-03-13 00:12:00,
2013-03-12 20:23:00,58.0,45.0,29.82,North,0,0.0,0.0,63,0.00,,,0.70,,2013-03-13 00:23:00,
2013-03-12 20:33:00,57.0,45.0,29.83,North,0,0.0,4.0,63,0.00,,,0.70,,2013-03-13 00:33:00,
2013-03-12 20:42:00,57.0,45.0,29.83,North,0,0.0,4.0,63,0.00,,,0.70,,2013-03-13 00:42:00,
2013-03-12 20:53:00,56.0,42.0,29.84,North,0,0.0,4.0,59,0.00,,,0.70,,2013-03-13 00:53:00,
2013-03-12 21:03:00,56.0,41.0,29.85,NW,316,1.0,5.0,56,0.00,,,0.70,,2013-03-13 01:03:00,
2013-03-12 21:12:00,56.0,41.0,29.85,NW,316,1.0,5.0,56,0.00,,,0.70,,2013-03-13 01:12:00,
2013-03-12 21:22:00,56.0,39.0,29.86,North,0,0.0,4.0,52,0.00,,,0.70,,2013-03-13 01:22:00,
2013-03-12 21:33:00,55.0,39.0,29.87,North,0,0.0,3.0,55,0.00,,,0.70,,2013-03-13 01:33:00,
2013-03-12 21:42:00,55.0,39.0,29.87,North,0,0.0,3.0,55,0.00,,,0.70,,2013-03-13 01:42:00,
2013-03-12 21:53:00,55.0,39.0,29.87,North,0,0.0,3.0,55,0.00,,,0.70,,2013-03-13 01:53:00,
2013-03-12 22:02:00,53.0,38.0,29.88,NW,306,1.0,6.0,57,0.00,,,0.70,,2013-03-13 02:02:00,
2013-03-12 22:12:00,53.0,38.0,29.88,NW,306,1.0,6.0,57,0.00,,,0.70,,2013-03-13 02:12:00,
2013-03-12 22:23:00,53.0,39.0,29.89,North,0,0.0,4.0,59,0.00,,,0.70,,2013-03-13 02:23:00,
2013-03-12 22:32:00,52.0,37.0,29.89,NW,320,2.0,7.0,57,0.00,,,0.70,,2013-03-13 02:32:00,
2013-03-12 22:43:00,52.0,37.0,29.89,NW,320,2.0,7.0,57,0.00,,,0.70,,2013-03-13 02:43:00,
2013-03-12 22:52:00,52.0,38.0,29.90,North,0,0.0,6.0,58,0.00,,,0.70,,2013-03-13 02:52:00,
2013-03-12 23:02:00,51.0,37.0,29.91,North,0,0.0,3.0,59,0.00,,,0.70,,2013-03-13 03:02:00,
2013-03-12 23:13:00,51.0,37.0,29.91,North,0,0.0,3.0,59,0.00,,,0.70,,2013-03-13 03:13:00,
2013-03-12 23:22:00,51.0,38.0,29.91,North,0,0.0,0.0,61,0.00,,,0.70,,2013-03-13 03:22:00,
2013-03-12 23:32:00,50.0,38.0,29.92,North,0,0.0,2.0,63,0.00,,,0.70,,2013-03-13 03:32:00,
2013-03-12 23:42:00,50.0,38.0,29.92,North,0,0.0,2.0,63,0.00,,,0.70,,2013-03-13 03:42:00,
2013-03-12 23:53:00,49.0,37.0,29.92,North,0,0.0,4.0,64,0.00,,,0.70,,2013-03-13 03:53:00,